Location: Poughquag
(41.6090°N, 73.6820°W)
Time: 05:16:44
(UTC-04:00)

A-11 Canister half - Pass Details

Date: 31 May 2020
Orbit: 1514 x 1686 km, 47.2° (Epoch: 06 July)

Event Time Altitude Azimuth Distance (km) Brightness Sun altitude
Rises 22:15:08 0° 288° (WNW) 4,657 12.5 -16.6°
Reaches altitude 10° 22:19:46 10° 268° (W) 3,675 11.5 -17.1°
Maximum altitude 22:24:37 16° 236° (SW) 3,258 10.7 -17.7°
Drops below altitude 10° 22:29:32 10° 203° (SSW) 3,701 10.7 -18.2°
Enters shadow 22:31:20 - 194° (SSW) 4,038 10.8 -18.4°
